Defiance, OH

3:18 PM EST on February 17, 2018 (GMT -0500)
Defiance Memorial

Weather History for KDFI - November, 2011

Change the Weather History Date:

Thursday, November 24, 2011

  Actual Average Record
Temperature  
Mean Temperature 40 °F -  
Max Temperature 45 °F 45 °F 65 °F (1974)
Min Temperature 35 °F 27 °F 0 °F (1950)
Degree Days  
Heating Degree Days 25    
Moisture  
Dew Point 36 °F    
Average Humidity 89    
Maximum Humidity 93    
Minimum Humidity 76    
Precipitation  
Precipitation 0.00 in - - ()
Sea Level Pressure  
Sea Level Pressure 30.26 in    
Wind  
Wind Speed 7 mph (SW)    
Max Wind Speed 15 mph    
Max Gust Speed 22 mph    
Visibility 4 miles    
Events Fog    
Averages and records for this station are not official NWS values.
T = Trace of Precipitation, MM = Missing Value Source: NWS Daily Summary

Daily Weather History Graph

Daily Weather History Graph

Search for Another Location

Airport or City:

Trip Planner

Search our weather history database for the weather conditions in past years. The results will help you decide how hot, cold, wet, or windy it might be!

Date:

Astronomy

Nov. 24, 2011 Rise Set
Actual Time 7:36 AM EST 5:12 PM EST
Civil Twilight 7:05 AM EST 5:42 PM EST
Nautical Twilight 6:32 AM EST 6:16 PM EST
Astronomical Twilight 5:58 AM EST 6:49 PM EST
Moon 6:53 AM EST (11/24) 4:41 PM EST (11/24)
Length of Visible Light 10h 36m
Length of Day
9h 35m
Waning Crescent, 0% of the Moon is Illuminated
Nov 24
Waning Crescent
Nov 25
New
Dec 2
First Quarter
Dec 10
Full
Dec 17
Last Quarter

Hourly Weather History & Observations

Time (EST) Temp. Windchill Dew Point Humidity Pressure Visibility Wind Dir Wind Speed Gust Speed Precip Events Conditions
12:29 AM 39.2 °F 35.9 °F 35.6 °F 87% 30.26 in 2.5 mi SW 4.6 mph - N/A   Overcast
12:49 AM 39.2 °F 35.9 °F 37.4 °F 93% 30.25 in 2.5 mi WSW 4.6 mph - N/A   Overcast
12:53 AM 39.0 °F 35.7 °F 36.0 °F 89% 30.26 in 2.5 mi WSW 4.6 mph - N/A   Overcast
1:34 AM 37.4 °F - 35.6 °F 93% 30.24 in 2.0 mi Calm Calm - N/A   Overcast
1:51 AM 37.4 °F 33.8 °F 33.8 °F 87% 30.24 in 1.8 mi SW 4.6 mph - N/A   Overcast
1:53 AM 36.0 °F 32.1 °F 34.0 °F 93% 30.25 in 1.8 mi SW 4.6 mph - N/A   Overcast
2:28 AM 35.6 °F 30.7 °F 33.8 °F 93% 30.24 in 2.0 mi SSW 5.8 mph - N/A   Overcast
2:51 AM 35.6 °F 30.7 °F 33.8 °F 93% 30.24 in 2.5 mi SSW 5.8 mph - N/A   Overcast
2:53 AM 36.0 °F 31.1 °F 33.1 °F 89% 30.25 in 2.5 mi SSW 5.8 mph - N/A   Overcast
3:50 AM 37.4 °F 32.8 °F 35.6 °F 93% 30.24 in 2.5 mi SW 5.8 mph - N/A   Overcast
3:53 AM 37.9 °F 32.7 °F 35.1 °F 89% 30.25 in 2.5 mi SW 6.9 mph - N/A   Overcast
4:25 AM 37.4 °F 30.3 °F 35.6 °F 93% 30.24 in 0.5 mi SW 10.4 mph - N/A Fog Fog
4:53 AM 37.9 °F 32.7 °F 36.0 °F 93% 30.26 in 0.5 mi SW 6.9 mph - N/A Fog Fog
5:53 AM 37.9 °F 31.5 °F 36.0 °F 93% 30.27 in 0.5 mi SW 9.2 mph - N/A Fog Fog
6:15 AM 37.4 °F 30.3 °F 35.6 °F 93% 30.25 in 1.5 mi SW 10.4 mph - N/A   Overcast
6:24 AM 37.4 °F 30.3 °F 35.6 °F 93% 30.25 in 2.5 mi SW 10.4 mph - N/A   Overcast
6:41 AM 37.4 °F 30.8 °F 35.6 °F 93% 30.25 in 2.0 mi SW 9.2 mph - N/A   Overcast
6:49 AM 37.4 °F 29.8 °F 35.6 °F 93% 30.25 in 2.5 mi SW 11.5 mph - N/A   Overcast
6:53 AM 37.9 °F 30.9 °F 35.1 °F 89% 30.27 in 2.5 mi SW 10.4 mph - N/A   Overcast
7:19 AM 37.4 °F 29.3 °F 35.6 °F 93% 30.26 in 2.0 mi SSW 12.7 mph - N/A   Overcast
7:32 AM 37.4 °F 28.9 °F 33.8 °F 87% 30.26 in 2.5 mi SW 13.8 mph 20.7 mph N/A   Overcast
7:53 AM 37.0 °F 30.4 °F 35.1 °F 93% 30.29 in 2.5 mi SW 9.2 mph - N/A   Overcast
7:57 AM 37.4 °F 32.8 °F 35.6 °F 93% 30.28 in 1.8 mi Variable 5.8 mph - N/A   Overcast
8:53 AM 37.0 °F 29.8 °F 35.1 °F 93% 30.31 in 2.0 mi WSW 10.4 mph 16.1 mph N/A   Overcast
9:00 AM 37.4 °F 30.3 °F 35.6 °F 93% 30.29 in 2.5 mi WSW 10.4 mph 19.6 mph N/A   Overcast
9:25 AM 37.4 °F 30.8 °F 35.6 °F 93% 30.29 in 2.0 mi SW 9.2 mph - N/A   Overcast
9:53 AM 39.0 °F 34.0 °F 36.0 °F 89% 30.31 in 2.5 mi WSW 6.9 mph 17.3 mph N/A   Overcast
10:27 AM 39.2 °F 31.6 °F 35.6 °F 87% 30.30 in 3.0 mi SW 12.7 mph 19.6 mph N/A   Overcast
10:53 AM 39.9 °F 32.9 °F 36.0 °F 86% 30.32 in 4.0 mi SW 11.5 mph 16.1 mph N/A   Overcast
11:02 AM 39.2 °F 33.6 °F 35.6 °F 87% 30.30 in 4.0 mi SW 8.1 mph 18.4 mph N/A   Overcast
11:53 AM 41.0 °F 34.7 °F 37.0 °F 86% 30.31 in 5.0 mi SW 10.4 mph 18.4 mph N/A   Overcast
12:53 PM 42.1 °F 36.6 °F 37.0 °F 82% 30.30 in 5.0 mi SW 9.2 mph 19.6 mph N/A   Haze
1:53 PM 44.1 °F 37.1 °F 37.9 °F 79% 30.27 in 6.0 mi SW 15.0 mph 21.9 mph N/A   Haze
2:11 PM 44.6 °F 38.8 °F 37.4 °F 76% 30.25 in 6.0 mi SW 11.5 mph 18.4 mph N/A   Haze
2:53 PM 45.0 °F 38.9 °F 37.9 °F 76% 30.26 in 7.0 mi SSW 12.7 mph 20.7 mph N/A   Overcast
3:53 PM 45.0 °F 39.3 °F 39.0 °F 80% 30.24 in 7.0 mi SSW 11.5 mph - N/A   Overcast
5:53 PM 43.0 °F 40.3 °F 37.9 °F 82% 30.23 in 7.0 mi SSW 4.6 mph - N/A   Clear
6:53 PM 39.9 °F 35.8 °F 37.0 °F 89% 30.24 in 6.0 mi SSW 5.8 mph - N/A   Clear
7:53 PM 43.0 °F 37.7 °F 37.9 °F 82% 30.22 in 8.0 mi SSW 9.2 mph - N/A   Clear
8:53 PM 43.0 °F 36.8 °F 39.0 °F 86% 30.21 in 7.0 mi SSW 11.5 mph - N/A   Clear
9:53 PM 42.1 °F 36.1 °F 37.9 °F 85% 30.20 in 6.0 mi SSW 10.4 mph - N/A   Clear
10:17 PM 42.8 °F 37.0 °F 37.4 °F 81% 30.18 in 6.0 mi SSW 10.4 mph - N/A   Partly Cloudy
10:53 PM 41.0 °F 34.7 °F 37.9 °F 89% 30.20 in 6.0 mi SSW 10.4 mph - N/A   Scattered Clouds
11:53 PM 39.9 °F 35.8 °F 37.0 °F 89% 30.19 in 5.0 mi SSW 5.8 mph - N/A   Clear